This is the latest recevied weather packets stored in our database for station/object DO3MLA-13. If no packets are shown the sender has not sent any weather packets the latest 10 day(s).
| Time | Temp. | Humidity | Pressure | Rain* | Wind** | Luminosity | Snow |
|---|---|---|---|---|---|---|---|
| 1787845373 | 33.89° C | 56% | 995 hPa | 0 mm | - | 131 W/m² | - |
| 1787844769 | 33.89° C | 55% | 995 hPa | 0 mm | - | 119 W/m² | - |
| 1787844164 | 35° C | 52% | 995 hPa | 0 mm | - | 104 W/m² | - |
| 1787843559 | 33.89° C | 56% | 995 hPa | 0 mm | - | 191 W/m² | - |
| 1787842955 | 35° C | 54% | 995 hPa | 0 mm | - | 267 W/m² | - |
| 1787842350 | 35° C | 68% | 995 hPa | 0 mm | - | 252 W/m² | - |
| 1787841746 | 34.44° C | 74% | 995 hPa | 0 mm | - | 188 W/m² | - |
| 1787841148 | 35° C | 72% | 995 hPa | 0 mm | - | 171 W/m² | - |
| 1787840536 | 36.67° C | 63% | 995 hPa | 0 mm | - | 241 W/m² | - |
| 1787839931 | 35.56° C | 68% | 995 hPa | 0 mm | - | 297 W/m² | - |
| 1787838722 | 35° C | 74% | 995 hPa | 0 mm | - | 236 W/m² | - |
| 1787838118 | 34.44° C | 76% | 995 hPa | 0 mm | - | 319 W/m² | - |
| 1787837513 | 35° C | 78% | 995 hPa | 0 mm | - | 318 W/m² | - |
| 1787836908 | 35° C | 78% | 995 hPa | 0 mm | - | 328 W/m² | - |
| 1787836304 | 33.89° C | 82% | 995 hPa | 0 mm | - | 413 W/m² | - |
| 1787835699 | 34.44° C | 84% | 996 hPa | 0 mm | - | 344 W/m² | - |
| 1787835094 | 33.33° C | 95% | 996 hPa | 0 mm | - | 334 W/m² | - |
| 1787834490 | 33.33° C | 93% | 996 hPa | 0 mm | - | 249 W/m² | - |
| 1787833885 | 33.89° C | 87% | 996 hPa | 0 mm | - | 354 W/m² | - |
| 1787833281 | 32.78° C | 100% | 996 hPa | 0 mm | - | 325 W/m² | - |
| 1787832676 | 32.22° C | 100% | 996 hPa | 0 mm | - | 285 W/m² | - |
| 1787832071 | 32.22° C | 100% | 996 hPa | 0 mm | - | 351 W/m² | - |
| 1787831467 | 32.22° C | 100% | 996 hPa | 0 mm | - | 333 W/m² | - |
| 1787830862 | 32.22° C | 100% | 996 hPa | 0 mm | - | 325 W/m² | - |
| 1787830257 | 31.67° C | 100% | 996 hPa | 0 mm | - | 344 W/m² | - |
* Rain latest hour (hover to see other rain measurements)
** Current wind speed in m/s (hover to see current wind gust speed)